Pecs, Hungary

2:54 AM CEST on May 23, 2017 (GMT +0200)
Pecs

Weather History for LHPP - February, 2013

Change the Weather History Date:

Wednesday, February 6, 2013

  Actual Average Record
Temperature  
Mean Temperature 37 °F -  
Max Temperature 42 °F 43 °F - ()
Min Temperature 32 °F 30 °F - ()
Degree Days  
Heating Degree Days 28    
Moisture  
Dew Point 34 °F    
Average Humidity 85    
Maximum Humidity 100    
Minimum Humidity 69    
Precipitation  
Precipitation 0.04 in 0.04 in - ()
Sea Level Pressure  
Sea Level Pressure 29.50 in    
Wind  
Wind Speed 6 mph ()    
Max Wind Speed 15 mph    
Max Gust Speed -    
Visibility 6.2 miles    
Events Rain , Snow    
T = Trace of Precipitation, MM = Missing Value Source: Averaged Metar Reports

Daily Weather History Graph

Daily Weather History Graph

Search for Another Location

Airport or City:

Trip Planner

Search our weather history database for the weather conditions in past years. The results will help you decide how hot, cold, wet, or windy it might be!

Date:

Astronomy

Feb. 06, 2013 Rise Set
Actual Time 7:02 AM CET 4:59 PM CET
Civil Twilight 6:31 AM CET 5:31 PM CET
Nautical Twilight 5:56 AM CET 6:06 PM CET
Astronomical Twilight 5:21 AM CET 6:41 PM CET
Moon 3:35 AM CET (2/6) 12:52 PM CET (2/6)
Length of Visible Light 10h 59m
Length of Day
9h 56m
Waning Crescent, 19% of the Moon is Illuminated
Feb 6
Waning Crescent
Feb 10
New
Feb 17
First Quarter
Feb 25
Full
Mar 4
Last Quarter

Hourly Weather History & Observations

Time (CET) Temp. Windchill Dew Point Humidity Pressure Visibility Wind Dir Wind Speed Gust Speed Precip Events Conditions
12:45 AM 39.2 °F 37.0 °F 32.0 °F 75% 29.62 in 6.2 mi ESE 3.5 mph - N/A   Overcast
1:00 AM 38 °F - 31 °F 69% 29.64 in 47 mi ESE 4.5 mph - -   Partly Cloudy
1:45 AM 39.2 °F - 32.0 °F 75% 29.59 in 6.2 mi SE 2.3 mph - N/A   Overcast
2:45 AM 39.2 °F 35.0 °F 32.0 °F 75% 29.59 in 6.2 mi SSE 5.8 mph - N/A   Overcast
3:45 AM 39.2 °F 34.2 °F 30.2 °F 70% 29.56 in 6.2 mi SSE 6.9 mph - N/A   Overcast
4:45 AM 37.4 °F 32.8 °F 28.4 °F 70% 29.53 in 6.2 mi SE 5.8 mph - N/A   Overcast
5:15 AM 39.2 °F 37.0 °F 30.2 °F 70% 29.50 in 6.2 mi SE 3.5 mph - N/A   Overcast
5:45 AM 39.2 °F 37.0 °F 32.0 °F 75% 29.50 in 6.2 mi SSE 3.5 mph - N/A Rain Light Rain
5:48 AM 39.2 °F - 30.2 °F 70% 29.50 in - North - - N/A   Unknown
6:02 AM - - - N/A% - 5.0 mi South 5.8 mph - N/A Rain Light Rain
6:15 AM 41.0 °F 36.4 °F 33.8 °F 76% 29.50 in 6.2 mi South 6.9 mph - N/A Rain Light Rain
6:45 AM 37.4 °F 32.1 °F 33.8 °F 87% 29.50 in 6.2 mi North 6.9 mph - N/A   Mostly Cloudy
7:00 AM 38 °F - 33 °F 77% 29.53 in 12 mi North 6.7 mph - - Rain Light Rain
7:15 AM 37.4 °F 34.9 °F 32.0 °F 81% 29.50 in - NNE 3.5 mph - N/A   Clear
7:45 AM 37.4 °F 34.9 °F 32.0 °F 81% 29.50 in - ESE 3.5 mph - N/A   Clear
8:15 AM 39.2 °F 35.9 °F 33.8 °F 81% 29.47 in - ENE 4.6 mph - N/A   Clear
8:45 AM 39.2 °F 35.0 °F 35.6 °F 87% 29.47 in - East 5.8 mph - N/A   Clear
9:00 AM - - - N/A% - 6.2 mi East 5.8 mph - N/A   Overcast
9:15 AM 41.0 °F 36.4 °F 35.6 °F 81% 29.50 in 6.2 mi North 6.9 mph - N/A   Mostly Cloudy
9:45 AM 41.0 °F 38.0 °F 37.4 °F 87% 29.50 in 6.2 mi East 4.6 mph - N/A Rain Light Rain
10:15 AM 42.8 °F 39.3 °F 37.4 °F 81% 29.50 in 6.2 mi North 5.8 mph - N/A   Mostly Cloudy
10:45 AM 41.0 °F 35.8 °F 37.4 °F 87% 29.50 in 6.2 mi NNE 8.1 mph - N/A   Mostly Cloudy
11:15 AM 42.8 °F 37.5 °F 37.4 °F 81% 29.50 in 6.2 mi North 9.2 mph - N/A   Mostly Cloudy
11:45 AM 41.0 °F 37.1 °F 37.4 °F 87% 29.50 in 6.2 mi North 5.8 mph - N/A   Overcast
12:00 PM - - - N/A% - 5.0 mi North 11.5 mph - N/A Rain Light Rain
12:15 PM 41.0 °F 35.8 °F 37.4 °F 87% 29.47 in 6.2 mi North 8.1 mph - N/A   Overcast
12:45 PM 39.2 °F 32.5 °F 35.6 °F 87% 29.47 in 6.2 mi NNE 10.4 mph - N/A   Overcast
1:00 PM 39 °F - 36 °F 84% 29.51 in 12 mi NNE 11.2 mph - -   Partly Cloudy
1:15 PM 39.2 °F 33.6 °F 35.6 °F 87% 29.47 in 6.2 mi NNE 8.1 mph - N/A Rain Light Rain
1:45 PM 39.2 °F 33.0 °F 35.6 °F 87% 29.47 in 6.2 mi North 9.2 mph - N/A   Overcast
2:15 PM 37.4 °F 31.4 °F 33.8 °F 87% 29.47 in 6.2 mi North 8.1 mph - N/A Rain Light Rain
2:35 PM 37.4 °F 30.8 °F 35.6 °F 93% 29.53 in 4.3 mi North 9.2 mph - N/A Rain Light Rain
2:45 PM 37.4 °F 31.4 °F 35.6 °F 93% 29.50 in 4.3 mi North 8.1 mph - N/A Rain Light Rain
3:00 PM - - - N/A% - 4.3 mi North 11.5 mph - N/A   Overcast
3:15 PM 37.4 °F 28.9 °F 33.8 °F 87% 29.47 in 6.2 mi North 13.8 mph - N/A Rain Light Rain
3:45 PM 37.4 °F 29.8 °F 33.8 °F 87% 29.47 in 6.2 mi North 11.5 mph - N/A   Overcast
4:15 PM 35.6 °F 26.2 °F 33.8 °F 93% 29.44 in 6.2 mi NNE 15.0 mph - N/A Rain Light Rain
4:45 PM 35.6 °F 28.6 °F 33.8 °F 93% 29.47 in 6.2 mi NNE 9.2 mph - N/A Rain Light Rain
5:15 PM 35.6 °F 27.5 °F 33.8 °F 93% 29.47 in 6.2 mi NNE 11.5 mph - N/A Rain Light Rain
5:45 PM 35.6 °F 29.9 °F 33.8 °F 93% 29.47 in 6.2 mi NNE 6.9 mph - N/A   Overcast
6:15 PM 35.6 °F 29.9 °F 33.8 °F 93% 29.47 in 6.2 mi North 6.9 mph - N/A Rain Light Rain
6:45 PM 35.6 °F 29.9 °F 33.8 °F 93% 29.44 in 6.2 mi North 6.9 mph - N/A Rain Light Rain
7:00 PM 35 °F - 33 °F 90% 29.48 in 9 mi North 6.7 mph - - Rain Light Rain
7:15 PM 35.6 °F 28.6 °F 32.0 °F 87% 29.44 in 6.2 mi NNE 9.2 mph - N/A Rain Light Rain
7:45 PM 33.8 °F 26.4 °F 32.0 °F 93% 29.47 in 6.2 mi NNE 9.2 mph - N/A Rain Light Rain
8:15 PM 32.0 °F 27.5 °F 32.0 °F 100% 29.47 in 3.7 mi North 4.6 mph - N/A Snow Light Snow
8:45 PM 32.0 °F 26.4 °F 30.2 °F 93% 29.44 in 3.7 mi North 5.8 mph - N/A Snow Light Snow
9:45 PM 32.0 °F 28.7 °F 30.2 °F 93% 29.47 in 3.7 mi NW 3.5 mph - N/A Snow Light Snow
10:45 PM 32.0 °F 27.5 °F 30.2 °F 93% 29.47 in 6.2 mi WNW 4.6 mph - N/A Snow Light Snow
11:45 PM 33.8 °F 27.7 °F 32.0 °F 93% 29.47 in 6.2 mi NNW 6.9 mph - N/A   Overcast